����,���ϕ���(m/s),���ϕ���,�ő�u�ԕ���(m/s),�ő啗��������,�C��(��),���x(%),10���Ԉړ��ώZ�J��(mm),1���Ԉړ��ώZ�J��(mm),���J��(mm),�݌v�J��(mm)
2024-02-19T00:00:00+09:00,3.7,���쐼,7.2,�쐼,13.7,87.7,0,0,0,0
2024-02-19T00:01:00+09:00,3.6,���쐼,7.2,�쐼,13.6,87.9,0,0,0,0
2024-02-19T00:02:00+09:00,3.3,���쐼,5.7,���쐼,13.4,88.3,0,0,0,0
2024-02-19T00:03:00+09:00,3.4,��,5.8,��,13.5,89,0,0,0,0
2024-02-19T00:04:00+09:00,3.6,��,6.6,��,13.5,89.2,0,0,0,0
2024-02-19T00:05:00+09:00,3.7,��,6.6,��,13.7,88.7,0,0,0,0
2024-02-19T00:06:00+09:00,4.1,��,7.4,��,13.6,89.1,0,0,0,0
2024-02-19T00:07:00+09:00,4.2,��,7.4,��,13.6,87.5,0,0,0,0
2024-02-19T00:08:00+09:00,4.4,��,7.4,��,13.5,88.5,0,0,0,0
2024-02-19T00:09:00+09:00,4.6,��,7.4,��,13.4,88.9,0,0,0,0
2024-02-19T00:10:00+09:00,4.5,��,7.4,��,13.4,88.8,0,0,0,0
2024-02-19T00:11:00+09:00,4.6,��,7.4,��,13.3,89.5,0,0,0,0
2024-02-19T00:12:00+09:00,4.7,��,7.4,��,13.4,90,0,0,0,0
2024-02-19T00:13:00+09:00,4.7,���쐼,7.4,��,13.4,89.2,0,0,0,0
2024-02-19T00:14:00+09:00,4.6,���쐼,7.4,��,13.4,89.2,0,0,0,0
2024-02-19T00:15:00+09:00,4.6,���쐼,7.4,��,13.3,89.1,0,0,0,0
2024-02-19T00:16:00+09:00,4.3,���쐼,6.8,���쐼,13.3,89.8,0,0,0,0
2024-02-19T00:17:00+09:00,4,���쐼,6.8,���쐼,13.2,89.7,0,0,0,0
2024-02-19T00:18:00+09:00,3.8,���쐼,6.8,���쐼,13.3,90.6,0,0,0,0
2024-02-19T00:19:00+09:00,3.7,���쐼,6.8,���쐼,13.2,90.4,0,0,0,0
2024-02-19T00:20:00+09:00,3.8,���쐼,6.8,���쐼,13.4,87.7,0,0,0,0
2024-02-19T00:21:00+09:00,3.6,���쐼,6.8,���쐼,13.4,87.8,0,0,0,0
2024-02-19T00:22:00+09:00,3.5,���쐼,6.8,���쐼,13.3,87.8,0,0,0,0
2024-02-19T00:23:00+09:00,3.3,���쐼,6.8,���쐼,13.3,87.4,0,0,0,0
2024-02-19T00:24:00+09:00,3.4,���쐼,7,���쐼,13.2,88.6,0,0,0,0
2024-02-19T00:25:00+09:00,3.3,���쐼,7,���쐼,13.3,88.8,0,0,0,0
2024-02-19T00:26:00+09:00,3.3,���쐼,7,���쐼,13.3,88.7,0,0,0,0
2024-02-19T00:27:00+09:00,3.4,���쐼,7,���쐼,13.2,88.9,0,0,0,0
2024-02-19T00:28:00+09:00,3.3,���쐼,7,���쐼,13.2,89.9,0,0,0,0
2024-02-19T00:29:00+09:00,3.2,��,7,���쐼,13.1,90,0,0,0,0
2024-02-19T00:30:00+09:00,3.2,��,7,���쐼,13.1,89.7,0,0,0,0
2024-02-19T00:31:00+09:00,3.3,��,7,���쐼,13.2,88.3,0,0,0,0
2024-02-19T00:32:00+09:00,3.4,��,7,���쐼,13.3,87.3,0,0,0,0
2024-02-19T00:33:00+09:00,3.4,��,7,���쐼,13.3,87.5,0,0,0,0
2024-02-19T00:34:00+09:00,3.1,��,5,��,13.3,87.4,0,0,0,0
2024-02-19T00:35:00+09:00,3,��,5,��,13.4,87.9,0,0,0,0
2024-02-19T00:36:00+09:00,2.9,��,5,��,13.3,87.8,0,0,0,0
2024-02-19T00:37:00+09:00,2.9,��,5,��,13.2,87.9,0,0,0,0
2024-02-19T00:38:00+09:00,2.9,���쐼,5,��,13.2,87,0,0,0,0
2024-02-19T00:39:00+09:00,2.9,���쐼,5,��,13.4,84.7,0,0,0,0
2024-02-19T00:40:00+09:00,2.8,��,4.9,���쐼,13.3,85.6,0,0,0,0
2024-02-19T00:41:00+09:00,2.8,��,6.1,���쐼,13.3,86.9,0,0,0,0
2024-02-19T00:42:00+09:00,2.8,���쐼,6.1,���쐼,13.2,85.9,0,0,0,0
2024-02-19T00:43:00+09:00,2.9,���쐼,6.1,���쐼,13,86,0,0,0,0
2024-02-19T00:44:00+09:00,3.2,���쐼,6.1,���쐼,13.1,86.5,0,0,0,0
2024-02-19T00:45:00+09:00,3.4,���쐼,6.5,��,13.1,87.7,0,0,0,0
2024-02-19T00:46:00+09:00,3.6,���쐼,6.5,��,13.1,88,0,0,0,0
2024-02-19T00:47:00+09:00,3.9,���쐼,6.5,��,13.1,88.5,0,0,0,0
2024-02-19T00:48:00+09:00,4.1,���쐼,7,���쐼,12.9,90.1,0,0,0,0
2024-02-19T00:49:00+09:00,4.4,���쐼,7.3,���쐼,12.9,89.5,0,0,0,0
2024-02-19T00:50:00+09:00,4.5,���쐼,7.3,���쐼,13,90.7,0,0,0,0
2024-02-19T00:51:00+09:00,4.4,���쐼,7.3,���쐼,13,89.4,0,0,0,0
2024-02-19T00:52:00+09:00,4.4,���쐼,7.3,���쐼,12.9,89.3,0,0,0,0
2024-02-19T00:53:00+09:00,4.3,���쐼,7.3,���쐼,12.8,89.1,0,0,0,0
2024-02-19T00:54:00+09:00,4.2,���쐼,7.3,���쐼,12.8,89.9,0,0,0,0
2024-02-19T00:55:00+09:00,4.2,���쐼,7.3,���쐼,12.7,90.8,0,0,0,0
2024-02-19T00:56:00+09:00,4.1,���쐼,7.3,���쐼,12.7,91.1,0,0,0,0
2024-02-19T00:57:00+09:00,4.1,���쐼,7.5,���쐼,12.7,90.4,0,0,0,0
2024-02-19T00:58:00+09:00,4.1,���쐼,7.5,���쐼,12.8,90.2,0,0,0,0
2024-02-19T00:59:00+09:00,3.9,���쐼,7.5,���쐼,12.6,90.5,0,0,0,0
2024-02-19T01:00:00+09:00,3.7,���쐼,7.5,���쐼,12.5,91,0,0,0,0
2024-02-19T01:01:00+09:00,3.7,���쐼,7.5,���쐼,12.5,91.8,0,0,0,0
2024-02-19T01:02:00+09:00,3.7,���쐼,7.5,���쐼,12.5,91,0,0,0,0
2024-02-19T01:03:00+09:00,3.7,���쐼,7.5,���쐼,12.5,91.2,0,0,0,0
2024-02-19T01:04:00+09:00,3.6,���쐼,7.5,���쐼,12.5,91.4,0,0,0,0
2024-02-19T01:05:00+09:00,3.5,���쐼,7.5,���쐼,12.5,91.5,0,0,0,0
2024-02-19T01:06:00+09:00,3.5,���쐼,7.5,���쐼,12.5,91.4,0,0,0,0
2024-02-19T01:07:00+09:00,3.2,���쐼,6.9,�쐼,12.4,91.3,0,0,0,0
2024-02-19T01:08:00+09:00,3.1,���쐼,5.4,���쐼,12.5,91.2,0,0,0,0
2024-02-19T01:09:00+09:00,3.1,���쐼,5.4,���쐼,12.4,90.8,0,0,0,0
2024-02-19T01:10:00+09:00,3,���쐼,5.4,���쐼,12.3,90.6,0,0,0,0
2024-02-19T01:11:00+09:00,3,���쐼,5.4,���쐼,12.3,91.2,0,0,0,0
2024-02-19T01:12:00+09:00,2.9,���쐼,5.3,��,12.4,91.4,0,0,0,0
2024-02-19T01:13:00+09:00,3,���쐼,5.3,��,12.5,90.8,0,0,0,0
2024-02-19T01:14:00+09:00,3,���쐼,5.3,��,12.5,89.2,0,0,0,0
2024-02-19T01:15:00+09:00,2.7,���쐼,5.3,��,12.3,88.6,0,0,0,0
2024-02-19T01:16:00+09:00,2.4,���쐼,5.3,��,12.1,89,0,0,0,0
2024-02-19T01:17:00+09:00,2.3,�쐼,5.3,��,12.1,89.6,0,0,0,0
2024-02-19T01:18:00+09:00,2.2,�쐼,5.1,���쐼,12.2,90.1,0,0,0,0
2024-02-19T01:19:00+09:00,2.1,�쐼,4.7,��,12.2,90.3,0,0,0,0
2024-02-19T01:20:00+09:00,2.1,�쐼,4.7,��,12.1,90.4,0,0,0,0
2024-02-19T01:21:00+09:00,2,�쐼,4.7,��,11.9,90.4,0,0,0,0
2024-02-19T01:22:00+09:00,1.9,�쐼,3.9,�쐼,11.8,90.3,0,0,0,0
2024-02-19T01:23:00+09:00,1.8,�쐼,3.9,�쐼,11.5,90.3,0,0,0,0
2024-02-19T01:24:00+09:00,1.7,��쐼,3.9,�쐼,11.5,91,0,0,0,0
2024-02-19T01:25:00+09:00,1.7,��쐼,3.9,�쐼,11.5,91.7,0,0,0,0
2024-02-19T01:26:00+09:00,1.8,��쐼,3.9,�쐼,11.5,92.1,0,0,0,0
2024-02-19T01:27:00+09:00,1.8,��쐼,3.9,�쐼,11.7,93.3,0,0,0,0
2024-02-19T01:28:00+09:00,1.7,��쐼,3.4,���쐼,11.9,93.1,0,0,0,0
2024-02-19T01:29:00+09:00,1.7,��쐼,4,���쐼,12,91.8,0,0,0,0
2024-02-19T01:30:00+09:00,1.6,��쐼,4,���쐼,11.9,90.4,0,0,0,0
2024-02-19T01:31:00+09:00,1.4,��,4,���쐼,11.8,89.5,0,0,0,0
2024-02-19T01:32:00+09:00,1.4,��쐼,4,���쐼,11.7,89.4,0,0,0,0
2024-02-19T01:33:00+09:00,1.3,��쐼,4,���쐼,11.7,90,0,0,0,0
2024-02-19T01:34:00+09:00,1.4,��쐼,4,���쐼,11.6,89.9,0,0,0,0
2024-02-19T01:35:00+09:00,1.4,��,4,���쐼,11.4,90.5,0,0,0,0
2024-02-19T01:36:00+09:00,1.4,��,4,���쐼,11.4,91.1,0,0,0,0
2024-02-19T01:37:00+09:00,1.4,��,4,���쐼,11.5,92.5,0,0,0,0
2024-02-19T01:38:00+09:00,1.3,��,4,���쐼,11.5,92.4,0,0,0,0
2024-02-19T01:39:00+09:00,1.2,��쓌,2.3,�쓌,11.9,92.2,0,0,0,0
2024-02-19T01:40:00+09:00,1.2,��,2.3,�쓌,12.1,90.6,0,0,0,0
2024-02-19T01:41:00+09:00,1.3,��,2.3,�쓌,11.9,88.6,0,0,0,0
2024-02-19T01:42:00+09:00,1.3,��,2.3,�쓌,11.7,88.3,0,0,0,0
2024-02-19T01:43:00+09:00,1.4,��쐼,2.3,�쓌,11.6,88.4,0,0,0,0
2024-02-19T01:44:00+09:00,1.4,�쐼,3.3,�쐼,11.6,88.9,0,0,0,0
2024-02-19T01:45:00+09:00,1.5,���쐼,3.8,���쐼,11.6,88.9,0,0,0,0
2024-02-19T01:46:00+09:00,1.6,���쐼,3.9,���쐼,11.5,88.6,0,0,0,0
2024-02-19T01:47:00+09:00,1.7,���쐼,3.9,���쐼,11.2,87.3,0,0,0,0
2024-02-19T01:48:00+09:00,1.8,���쐼,3.9,���쐼,11,88.1,0,0,0,0
2024-02-19T01:49:00+09:00,1.9,���쐼,3.9,���쐼,11.1,89.7,0,0,0,0
2024-02-19T01:50:00+09:00,2,���쐼,5,���쐼,11.5,91.2,0,0,0,0
2024-02-19T01:51:00+09:00,2.4,�쐼,6,���쐼,11.7,89.8,0,0,0,0
2024-02-19T01:52:00+09:00,2.6,�쐼,6,���쐼,12.2,88.6,0,0,0,0
2024-02-19T01:53:00+09:00,2.8,�쐼,6,���쐼,12.2,87.3,0,0,0,0
2024-02-19T01:54:00+09:00,2.9,�쐼,6,���쐼,11.9,85.9,0,0,0,0
2024-02-19T01:55:00+09:00,2.9,�쐼,6,���쐼,11.9,86.1,0,0,0,0
2024-02-19T01:56:00+09:00,3,�쐼,6,���쐼,12.1,86.6,0,0,0,0
2024-02-19T01:57:00+09:00,3.2,���쐼,6,���쐼,12.3,84.7,0,0,0,0
2024-02-19T01:58:00+09:00,3.5,���쐼,6,���쐼,12.4,82.7,0,0,0,0
2024-02-19T01:59:00+09:00,3.7,���쐼,6,���쐼,12.6,83.4,0,0,0,0
2024-02-19T02:00:00+09:00,3.7,���쐼,6,���쐼,12.6,82.5,0,0,0,0
2024-02-19T02:01:00+09:00,3.4,���쐼,6,���쐼,12.2,81.7,0,0,0,0
2024-02-19T02:02:00+09:00,3.2,�쐼,6,���쐼,11.6,82.6,0,0,0,0
2024-02-19T02:03:00+09:00,3,�쐼,6,���쐼,11.5,84.4,0,0,0,0
2024-02-19T02:04:00+09:00,2.9,�쐼,6,���쐼,11.4,85.7,0,0,0,0
2024-02-19T02:05:00+09:00,2.8,�쐼,6,���쐼,11.7,85.9,0,0,0,0
2024-02-19T02:06:00+09:00,2.6,��쐼,6,���쐼,11.4,85.5,0,0,0,0
2024-02-19T02:07:00+09:00,2.4,��쐼,5.6,���쐼,11.7,85.7,0,0,0,0
2024-02-19T02:08:00+09:00,2.3,��쐼,5.6,���쐼,11.7,85,0,0,0,0
2024-02-19T02:09:00+09:00,2.3,��쐼,4.5,���쐼,12.3,84.1,0,0,0,0
2024-02-19T02:10:00+09:00,2.2,�쐼,4.1,��,12.5,82.5,0,0,0,0
2024-02-19T02:11:00+09:00,2.1,�쐼,4.1,��,12.3,79.9,0,0,0,0
2024-02-19T02:12:00+09:00,2.2,�쐼,4.5,���쐼,12.6,78.2,0,0,0,0
2024-02-19T02:13:00+09:00,2.5,���쐼,5.2,��,12.5,79.1,0,0,0,0
2024-02-19T02:14:00+09:00,2.6,���쐼,5.2,��,12.8,78.7,0,0,0,0
2024-02-19T02:15:00+09:00,2.7,���쐼,5.2,��,12.9,77.4,0,0,0,0
2024-02-19T02:16:00+09:00,2.8,���쐼,5.2,��,13,75.9,0,0,0,0
2024-02-19T02:17:00+09:00,2.7,���쐼,5.2,��,12.9,76.5,0,0,0,0
2024-02-19T02:18:00+09:00,2.7,���쐼,5.2,��,12.4,77.5,0,0,0,0
2024-02-19T02:19:00+09:00,2.7,���쐼,5.3,���쐼,12.4,78.8,0,0,0,0
2024-02-19T02:20:00+09:00,3,���쐼,6.1,���쐼,12.6,78.9,0,0,0,0
2024-02-19T02:21:00+09:00,3.3,���쐼,6.1,���쐼,12.8,78.1,0,0,0,0
2024-02-19T02:22:00+09:00,3.5,���쐼,6.1,���쐼,13,77.9,0,0,0,0
2024-02-19T02:23:00+09:00,3.5,���쐼,6.1,���쐼,12.9,79.2,0,0,0,0
2024-02-19T02:24:00+09:00,3.6,���쐼,6.1,���쐼,12.8,79.8,0,0,0,0
2024-02-19T02:25:00+09:00,3.8,���쐼,6.1,���쐼,12.9,79.4,0,0,0,0
2024-02-19T02:26:00+09:00,3.8,���쐼,6.1,���쐼,12.8,78.3,0,0,0,0
2024-02-19T02:27:00+09:00,3.9,��,6.1,���쐼,13,78.3,0,0,0,0
2024-02-19T02:28:00+09:00,4,��,6.1,���쐼,13,75.9,0,0,0,0
2024-02-19T02:29:00+09:00,3.9,��,6.1,���쐼,13,76,0,0,0,0
2024-02-19T02:30:00+09:00,3.5,��,5.9,��,13,76.1,0,0,0,0
2024-02-19T02:31:00+09:00,3.1,��,5.7,��,12.3,76.6,0,0,0,0
2024-02-19T02:32:00+09:00,2.7,��,5.6,��,12.2,77.7,0,0,0,0
2024-02-19T02:33:00+09:00,2.4,��,5.2,��,12,79,0,0,0,0
2024-02-19T02:34:00+09:00,2.2,��,4.8,��,12.3,79.3,0,0,0,0
2024-02-19T02:35:00+09:00,1.9,��,4.2,��,12.5,78.6,0,0,0,0
2024-02-19T02:36:00+09:00,1.7,��,4.2,��,12.2,78.3,0,0,0,0
2024-02-19T02:37:00+09:00,1.6,���쐼,3.5,���k��,11.9,79.8,0,0,0,0
2024-02-19T02:38:00+09:00,1.5,���쐼,3.2,���쐼,12,80.2,0,0,0,0
2024-02-19T02:39:00+09:00,1.4,�쐼,3,��,11.9,79.8,0,0,0,0
2024-02-19T02:40:00+09:00,1.4,�쐼,3,��,12.3,80.3,0,0,0,0
2024-02-19T02:41:00+09:00,1.6,�쐼,3,��,12.4,79.5,0,0,0,0
2024-02-19T02:42:00+09:00,1.7,�쐼,3,��,12.1,79.2,0,0,0,0
2024-02-19T02:43:00+09:00,1.7,�쐼,3,��,11.9,80.1,0,0,0,0
2024-02-19T02:44:00+09:00,1.6,��쐼,3,��,11.7,80.7,0,0,0,0
2024-02-19T02:45:00+09:00,1.5,��쐼,2.7,�쐼,12.6,79.5,0,0,0,0
2024-02-19T02:46:00+09:00,1.4,��쐼,2.7,�쐼,12.9,77.2,0,0,0,0
2024-02-19T02:47:00+09:00,1.3,�쐼,2.7,�쐼,13,76.1,0,0,0,0
2024-02-19T02:48:00+09:00,1.3,�쐼,2.7,�쐼,12.8,75.7,0,0,0,0
2024-02-19T02:49:00+09:00,1.1,�쐼,2.7,�쐼,12.2,76,0,0,0,0
2024-02-19T02:50:00+09:00,1,��쐼,2.7,�쐼,12,78,0,0,0,0
2024-02-19T02:51:00+09:00,1,�쐼,2.4,�쐼,12.4,77.6,0,0,0,0
2024-02-19T02:52:00+09:00,1,�쐼,2.9,���쐼,12.1,77.8,0,0,0,0
2024-02-19T02:53:00+09:00,1.1,�쐼,3.3,���쐼,12,78.5,0,0,0,0
2024-02-19T02:54:00+09:00,1.2,���쐼,3.3,���쐼,12.1,78.6,0,0,0,0
2024-02-19T02:55:00+09:00,1.3,���쐼,3.3,���쐼,12.1,78.6,0,0,0,0
2024-02-19T02:56:00+09:00,1.4,���쐼,3.4,��,12.1,78.4,0,0,0,0
2024-02-19T02:57:00+09:00,1.5,�쐼,3.4,��,11.9,78.7,0,0,0,0
2024-02-19T02:58:00+09:00,1.6,�쐼,3.4,��,11.7,79.7,0,0,0,0
2024-02-19T02:59:00+09:00,1.7,�쐼,3.4,��,11.7,80.7,0,0,0,0
2024-02-19T03:00:00+09:00,1.9,�쐼,3.4,��,11.8,81,0,0,0,0
2024-02-19T03:01:00+09:00,2,�쐼,3.6,���쐼,12.2,79.2,0,0,0,0
2024-02-19T03:02:00+09:00,2,�쐼,3.6,���쐼,12.5,77.5,0,0,0,0
2024-02-19T03:03:00+09:00,2.1,�쐼,4,���쐼,12.6,76.4,0,0,0,0
2024-02-19T03:04:00+09:00,2.2,�쐼,4,���쐼,12.5,75.4,0,0,0,0
2024-02-19T03:05:00+09:00,2.3,�쐼,4,���쐼,12.8,75.2,0,0,0,0
2024-02-19T03:06:00+09:00,2.2,�쐼,4,���쐼,13.2,73.9,0,0,0,0
2024-02-19T03:07:00+09:00,2.2,�쐼,4,���쐼,12.7,73.7,0,0,0,0
2024-02-19T03:08:00+09:00,2.2,�쐼,4,���쐼,12.3,75.3,0,0,0,0
2024-02-19T03:09:00+09:00,2.2,�쐼,4,���쐼,12.3,76,0,0,0,0
2024-02-19T03:10:00+09:00,2.1,�쐼,4,���쐼,12.2,76.5,0,0,0,0
2024-02-19T03:11:00+09:00,2.1,�쐼,4,���쐼,12,77.4,0,0,0,0
2024-02-19T03:12:00+09:00,2.1,�쐼,4,���쐼,11.8,78.3,0,0,0,0
2024-02-19T03:13:00+09:00,2,�쐼,3.9,���쐼,11.6,79.4,0,0,0,0
2024-02-19T03:14:00+09:00,1.9,��쐼,3.2,��,11.7,79.9,0,0,0,0
2024-02-19T03:15:00+09:00,1.9,��쐼,3.2,��,12,79.3,0,0,0,0
2024-02-19T03:16:00+09:00,1.9,��쐼,3.2,��,12.1,78.1,0,0,0,0
2024-02-19T03:17:00+09:00,2.1,��쐼,5.2,�쐼,12.1,77.8,0,0,0,0
2024-02-19T03:18:00+09:00,2.3,��쐼,5.2,�쐼,12.5,76.9,0,0,0,0
2024-02-19T03:19:00+09:00,2.5,��쐼,5.2,�쐼,12.7,75.8,0,0,0,0
2024-02-19T03:20:00+09:00,2.5,�쐼,5.2,�쐼,12.9,73.7,0,0,0,0
2024-02-19T03:21:00+09:00,2.6,�쐼,5.2,�쐼,13.1,73.4,0,0,0,0
2024-02-19T03:22:00+09:00,2.6,�쐼,5.2,�쐼,12.8,73.6,0,0,0,0
2024-02-19T03:23:00+09:00,2.7,�쐼,5.2,�쐼,12.5,74.3,0,0,0,0
2024-02-19T03:24:00+09:00,3,�쐼,5.9,���쐼,12.7,74.1,0,0,0,0
2024-02-19T03:25:00+09:00,3.2,�쐼,5.9,���쐼,13.2,72.1,0,0,0,0
2024-02-19T03:26:00+09:00,3.3,���쐼,5.9,���쐼,13.2,72,0,0,0,0
2024-02-19T03:27:00+09:00,3.3,���쐼,5.9,���쐼,13.1,72.6,0,0,0,0
2024-02-19T03:28:00+09:00,3.2,���쐼,5.9,���쐼,13.1,72.6,0,0,0,0
2024-02-19T03:29:00+09:00,3.1,�쐼,5.9,���쐼,12.8,72.9,0,0,0,0
2024-02-19T03:30:00+09:00,3.2,�쐼,5.9,���쐼,12.7,73.9,0,0,0,0
2024-02-19T03:31:00+09:00,3.3,���쐼,6.3,��,13,72.9,0,0,0,0
2024-02-19T03:32:00+09:00,3.4,���쐼,6.3,��,13.8,70.6,0,0,0,0
2024-02-19T03:33:00+09:00,3.6,���쐼,6.4,��,13.6,69.7,0,0,0,0
2024-02-19T03:34:00+09:00,3.5,���쐼,6.4,��,13.6,69,0,0,0,0
2024-02-19T03:35:00+09:00,3.6,���쐼,6.4,��,13.5,69.4,0,0,0,0
2024-02-19T03:36:00+09:00,3.7,���쐼,6.4,��,13.6,68.9,0,0,0,0
2024-02-19T03:37:00+09:00,3.8,���쐼,6.4,��,13.5,69.3,0,0,0,0
2024-02-19T03:38:00+09:00,4,���쐼,6.4,��,13.8,67.7,0,0,0,0
2024-02-19T03:39:00+09:00,4,���쐼,6.4,��,13.7,69,0,0,0,0
2024-02-19T03:40:00+09:00,4.1,���쐼,6.4,��,13.6,68,0,0,0,0
2024-02-19T03:41:00+09:00,4.1,���쐼,6.4,��,13.8,67.5,0,0,0,0
2024-02-19T03:42:00+09:00,4.2,���쐼,7.2,���쐼,13.9,67.5,0,0,0,0
2024-02-19T03:43:00+09:00,4.2,���쐼,7.2,���쐼,14.5,63.2,0,0,0,0
2024-02-19T03:44:00+09:00,4.1,���쐼,7.2,���쐼,14.9,61.1,0,0,0,0
2024-02-19T03:45:00+09:00,3.9,���쐼,7.2,���쐼,14.5,63.4,0,0,0,0
2024-02-19T03:46:00+09:00,3.7,���쐼,7.2,���쐼,14.2,63.5,0,0,0,0
2024-02-19T03:47:00+09:00,3.4,���쐼,7.2,���쐼,13.8,65.1,0,0,0,0
2024-02-19T03:48:00+09:00,3,���쐼,7.2,���쐼,13.5,67,0,0,0,0
2024-02-19T03:49:00+09:00,2.8,���쐼,7.2,���쐼,13.5,67.5,0,0,0,0
2024-02-19T03:50:00+09:00,2.4,���쐼,7.2,���쐼,13.5,67.7,0,0,0,0
2024-02-19T03:51:00+09:00,2.2,���쐼,7.2,���쐼,13.6,67.4,0,0,0,0
2024-02-19T03:52:00+09:00,1.8,���쐼,6.3,���k��,13.6,67.6,0,0,0,0
2024-02-19T03:53:00+09:00,1.7,���쐼,5.6,���쐼,13.9,66.8,0,0,0,0
2024-02-19T03:54:00+09:00,1.7,��,5,��,14.1,64.6,0,0,0,0
2024-02-19T03:55:00+09:00,1.6,��,5,��,14,64.7,0,0,0,0
2024-02-19T03:56:00+09:00,1.8,��,5.6,���쐼,14.3,62.7,0,0,0,0
2024-02-19T03:57:00+09:00,2.2,��,6.8,���쐼,14.4,63.5,0,0,0,0
2024-02-19T03:58:00+09:00,2.5,��,6.8,���쐼,14.2,63.3,0,0,0,0
2024-02-19T03:59:00+09:00,2.8,��,7.2,��쐼,14.2,63.8,0,0,0,0
2024-02-19T04:00:00+09:00,3.1,��,7.2,��쐼,14.3,62.6,0,0,0,0
2024-02-19T04:01:00+09:00,3.3,���쐼,7.2,��쐼,14.6,60.7,0,0,0,0
2024-02-19T04:02:00+09:00,3.6,���쐼,7.2,��쐼,14.5,62.2,0,0,0,0
2024-02-19T04:03:00+09:00,3.7,���쐼,7.2,��쐼,14.4,63,0,0,0,0
2024-02-19T04:04:00+09:00,3.9,���쐼,7.2,��쐼,14.3,63.1,0,0,0,0
2024-02-19T04:05:00+09:00,4.2,���쐼,7.2,��쐼,14.3,63.1,0,0,0,0
2024-02-19T04:06:00+09:00,4.1,���쐼,7.2,��쐼,14.3,63.7,0,0,0,0
2024-02-19T04:07:00+09:00,4.1,���쐼,7.2,��쐼,14.2,63.8,0,0,0,0
2024-02-19T04:08:00+09:00,4.2,���쐼,7.2,��쐼,14.1,64.1,0,0,0,0
2024-02-19T04:09:00+09:00,4.2,���쐼,6.3,���쐼,14.4,63.7,0,0,0,0
2024-02-19T04:10:00+09:00,4.2,���쐼,6.3,���쐼,14.5,63,0,0,0,0
2024-02-19T04:11:00+09:00,4.2,���쐼,6.3,���쐼,14.4,62.9,0,0,0,0
2024-02-19T04:12:00+09:00,4,���쐼,6.3,���쐼,14.3,64.6,0,0,0,0
2024-02-19T04:13:00+09:00,3.9,���쐼,6.3,���쐼,14.2,63.9,0,0,0,0
2024-02-19T04:14:00+09:00,3.6,���쐼,6.3,���쐼,14.3,63.7,0,0,0,0
2024-02-19T04:15:00+09:00,3.4,���쐼,6.1,��,14.3,63.7,0,0,0,0
2024-02-19T04:16:00+09:00,3.1,���쐼,6.1,��,14.1,64.2,0,0,0,0
2024-02-19T04:17:00+09:00,2.9,���쐼,6.1,��,14.1,64.6,0,0,0,0
2024-02-19T04:18:00+09:00,2.8,���쐼,6.1,��,14.2,65.2,0,0,0,0
2024-02-19T04:19:00+09:00,2.7,���쐼,5.5,���쐼,14.6,62.4,0,0,0,0
2024-02-19T04:20:00+09:00,2.8,���쐼,7.7,��,14.8,62.6,0,0,0,0
2024-02-19T04:21:00+09:00,2.7,���쐼,7.7,��,15,59.9,0,0,0,0
2024-02-19T04:22:00+09:00,2.7,��,7.7,��,15.1,60.2,0,0,0,0
2024-02-19T04:23:00+09:00,2.8,��,7.7,��,15.1,60.3,0,0,0,0
2024-02-19T04:24:00+09:00,2.9,��,7.7,��,15,60.2,0,0,0,0
2024-02-19T04:25:00+09:00,3.3,��,8.6,���쐼,14.9,61.2,0,0,0,0
2024-02-19T04:26:00+09:00,3.8,��,8.6,���쐼,14.7,60.9,0,0,0,0
2024-02-19T04:27:00+09:00,4.1,��,8.6,���쐼,14.7,60.4,0,0,0,0
2024-02-19T04:28:00+09:00,4.2,��,8.6,���쐼,14.5,61.3,0,0,0,0
2024-02-19T04:29:00+09:00,4.2,��,8.6,���쐼,14.3,62.6,0,0,0,0
2024-02-19T04:30:00+09:00,4,��,8.6,���쐼,14.2,63.8,0,0,0,0
2024-02-19T04:31:00+09:00,4.1,��,8.6,���쐼,14,63.9,0,0,0,0
2024-02-19T04:32:00+09:00,4,��,8.6,���쐼,13.9,64.5,0,0,0,0
2024-02-19T04:33:00+09:00,4,��,8.6,���쐼,13.7,66,0,0,0,0
2024-02-19T04:34:00+09:00,4.1,��,8.6,���쐼,14.1,65.9,0,0,0,0
2024-02-19T04:35:00+09:00,3.9,��,8.2,�쐼,14.3,64.6,0,0,0,0
2024-02-19T04:36:00+09:00,3.7,��,8.2,�쐼,14.3,63.8,0,0,0,0
2024-02-19T04:37:00+09:00,3.4,��,6.2,���쐼,14.4,65.3,0,0,0,0
2024-02-19T04:38:00+09:00,3.3,��,6,���쐼,14.3,65.3,0,0,0,0
2024-02-19T04:39:00+09:00,3.5,��,6.8,���쐼,14.4,63.7,0,0,0,0
2024-02-19T04:40:00+09:00,3.7,��,7.9,��,14.4,64.3,0,0,0,0
2024-02-19T04:41:00+09:00,4,��,7.9,��,14.5,62.3,0,0,0,0
2024-02-19T04:42:00+09:00,4.3,��,7.9,��,14.5,62.6,0,0,0,0
2024-02-19T04:43:00+09:00,4.2,��,7.9,��,14.4,63,0,0,0,0
2024-02-19T04:44:00+09:00,4.2,��,7.9,��,14.1,63.3,0,0,0,0
2024-02-19T04:45:00+09:00,4.1,��,7.9,��,14.2,63.7,0,0,0,0
2024-02-19T04:46:00+09:00,4.1,���쐼,7.9,��,14.5,63,0,0,0,0
2024-02-19T04:47:00+09:00,4.1,���쐼,7.9,��,14.4,63.7,0,0,0,0
2024-02-19T04:48:00+09:00,4.1,���쐼,7.9,��,14.4,63.3,0,0,0,0
2024-02-19T04:49:00+09:00,4.1,���쐼,7.9,��,14.8,62.8,0,0,0,0
2024-02-19T04:50:00+09:00,3.9,���쐼,7.8,���쐼,14.9,62.2,0,0,0,0
2024-02-19T04:51:00+09:00,3.9,���쐼,8.4,��,15,61.5,0,0,0,0
2024-02-19T04:52:00+09:00,3.7,���쐼,8.4,��,15.2,60.4,0,0,0,0
2024-02-19T04:53:00+09:00,3.8,���쐼,8.4,��,15.2,61.9,0,0,0,0
2024-02-19T04:54:00+09:00,3.7,���쐼,8.4,��,15,61.8,0,0,0,0
2024-02-19T04:55:00+09:00,3.7,���쐼,8.4,��,15,61,0,0,0,0
2024-02-19T04:56:00+09:00,3.6,���쐼,8.4,��,15.1,62.2,0,0,0,0
2024-02-19T04:57:00+09:00,3.5,���쐼,8.4,��,15,62.1,0,0,0,0
2024-02-19T04:58:00+09:00,3.3,���쐼,8.4,��,14.8,62.1,0,0,0,0
2024-02-19T04:59:00+09:00,3,��,8.4,��,14.9,62.4,0,0,0,0
2024-02-19T05:00:00+09:00,3,��,8.4,��,15.1,62.1,0,0,0,0
2024-02-19T05:01:00+09:00,2.8,���쐼,5.3,��,15.1,61.8,0,0,0,0
2024-02-19T05:02:00+09:00,2.7,���쐼,5.3,��,15.4,60.3,0,0,0,0
2024-02-19T05:03:00+09:00,2.6,���쐼,5.3,��,15.4,60.5,0,0,0,0
2024-02-19T05:04:00+09:00,2.5,���쐼,5.3,��,15.4,61,0,0,0,0
2024-02-19T05:05:00+09:00,2.5,��,5.1,��,15.2,61.7,0,0,0,0
2024-02-19T05:06:00+09:00,2.7,��,5.7,��,15,61.8,0,0,0,0
2024-02-19T05:07:00+09:00,2.9,��,6,��,15.2,61,0,0,0,0
2024-02-19T05:08:00+09:00,3.1,��,8.8,��,15.3,61,0,0,0,0
2024-02-19T05:09:00+09:00,3.6,��,8.8,��,15.4,60.5,0,0,0,0
2024-02-19T05:10:00+09:00,3.7,��,8.8,��,15.4,59.9,0,0,0,0
2024-02-19T05:11:00+09:00,3.9,��,8.8,��,15.5,60.9,0,0,0,0
2024-02-19T05:12:00+09:00,4.2,��,8.8,��,15.3,60.4,0,0,0,0
2024-02-19T05:13:00+09:00,4.5,��,8.8,��,15.3,60.3,0,0,0,0
2024-02-19T05:14:00+09:00,4.7,��,8.8,��,15.3,60.7,0,0,0,0
2024-02-19T05:15:00+09:00,4.9,��,8.8,��,15.2,61.3,0,0,0,0
2024-02-19T05:16:00+09:00,5,��,8.8,��,15.1,60.8,0,0,0,0
2024-02-19T05:17:00+09:00,5.1,��,8.8,��,15.1,62,0,0,0,0
2024-02-19T05:18:00+09:00,5,���쐼,8.8,���쐼,15.3,62.2,0,0,0,0
2024-02-19T05:19:00+09:00,4.8,���쐼,8.5,���쐼,15.5,60.2,0,0,0,0
2024-02-19T05:20:00+09:00,4.5,���쐼,8.5,���쐼,15.6,60.7,0,0,0,0
2024-02-19T05:21:00+09:00,4.4,��,8.5,���쐼,15.5,60.9,0,0,0,0
2024-02-19T05:22:00+09:00,4.2,��,8.5,���쐼,15.4,60.6,0,0,0,0
2024-02-19T05:23:00+09:00,3.9,��,8.3,���쐼,15.3,61.7,0,0,0,0
2024-02-19T05:24:00+09:00,3.9,��,8.2,���쐼,15.3,62.1,0,0,0,0
2024-02-19T05:25:00+09:00,3.9,��,7.4,���쐼,15.4,61.4,0,0,0,0
2024-02-19T05:26:00+09:00,3.9,��,7.4,���쐼,15.6,60.6,0,0,0,0
2024-02-19T05:27:00+09:00,3.7,��,7.4,���쐼,15.5,60.1,0,0,0,0
2024-02-19T05:28:00+09:00,3.5,��,7.4,���쐼,15.5,60.8,0,0,0,0
2024-02-19T05:29:00+09:00,3.6,��,10.5,���쐼,15.5,61.4,0,0,0,0
2024-02-19T05:30:00+09:00,3.6,��,10.5,���쐼,15.7,60.9,0,0,0,0
2024-02-19T05:31:00+09:00,3.7,��,10.5,���쐼,15.6,60.2,0,0,0,0
2024-02-19T05:32:00+09:00,3.8,��,10.5,���쐼,15.4,60,0,0,0,0
2024-02-19T05:33:00+09:00,3.9,��,10.5,���쐼,15.5,60.9,0,0,0,0
2024-02-19T05:34:00+09:00,3.9,��,10.5,���쐼,15.5,61.2,0,0,0,0
2024-02-19T05:35:00+09:00,4,��,10.5,���쐼,15.6,60.6,0,0,0,0
2024-02-19T05:36:00+09:00,3.9,��,10.5,���쐼,15.5,60.6,0,0,0,0
2024-02-19T05:37:00+09:00,4.1,��,10.5,���쐼,15.4,61.6,0,0,0,0
2024-02-19T05:38:00+09:00,4.5,��,10.5,���쐼,15.6,60.9,0,0,0,0
2024-02-19T05:39:00+09:00,4.6,��,9.7,��,15.6,61.3,0,0,0,0
2024-02-19T05:40:00+09:00,4.7,��,9.7,��,15.5,61.2,0,0,0,0
2024-02-19T05:41:00+09:00,4.9,��,9.7,��,15.4,61.3,0,0,0,0
2024-02-19T05:42:00+09:00,4.9,��,9.7,��,15.3,60.5,0,0,0,0
2024-02-19T05:43:00+09:00,5,��,9.7,��,15.2,61.5,0,0,0,0
2024-02-19T05:44:00+09:00,5.1,��,9.7,��,15.4,61.6,0,0,0,0
2024-02-19T05:45:00+09:00,4.7,��,9.7,��,15.4,61.7,0,0,0,0
2024-02-19T05:46:00+09:00,4.5,��,9.7,��,15.2,61.7,0,0,0,0
2024-02-19T05:47:00+09:00,4.1,���쐼,8.6,��,15.2,62.3,0,0,0,0
2024-02-19T05:48:00+09:00,3.8,���쐼,8.6,��,15.3,62.3,0,0,0,0
2024-02-19T05:49:00+09:00,3.7,��,7.4,��,15.3,62,0,0,0,0
2024-02-19T05:50:00+09:00,3.7,��,7.4,��,15.2,61.7,0,0,0,0
2024-02-19T05:51:00+09:00,3.8,��,7.4,��,15.4,62,0,0,0,0
2024-02-19T05:52:00+09:00,3.8,��,7.4,��,15.5,61.7,0,0,0,0
2024-02-19T05:53:00+09:00,3.5,��,7.2,���쐼,15.4,62.9,0,0,0,0
2024-02-19T05:54:00+09:00,3.4,��,7.2,���쐼,15.3,62.5,0,0,0,0
2024-02-19T05:55:00+09:00,3.4,��,7.2,���쐼,15.4,62,0,0,0,0
2024-02-19T05:56:00+09:00,3.6,��,7.2,���쐼,15.3,62.7,0,0,0,0
2024-02-19T05:57:00+09:00,3.8,��,7.2,���쐼,15.1,62.4,0,0,0,0
2024-02-19T05:58:00+09:00,3.7,��,7.2,���쐼,15,62,0,0,0,0
2024-02-19T05:59:00+09:00,3.6,��,7.2,���쐼,14.9,62.5,0,0,0,0
2024-02-19T06:00:00+09:00,3.5,��,7.2,���쐼,14.9,63.1,0,0,0,0
2024-02-19T06:01:00+09:00,3.3,��,6.3,��,15,63.2,0,0,0,0
2024-02-19T06:02:00+09:00,3.2,��,6.3,��,15.1,63.1,0,0,0,0
2024-02-19T06:03:00+09:00,3.1,���쐼,6.3,��,15,63.5,0,0,0,0
2024-02-19T06:04:00+09:00,3.1,���쐼,6.3,��,15.1,63.9,0,0,0,0
2024-02-19T06:05:00+09:00,3.4,���쐼,8.1,�쐼,15.2,63.4,0,0,0,0
2024-02-19T06:06:00+09:00,3.4,���쐼,8.1,�쐼,15.2,63.6,0,0,0,0
2024-02-19T06:07:00+09:00,3.2,��,8.1,�쐼,15.3,62.9,0,0,0,0
2024-02-19T06:08:00+09:00,3.1,��,8.1,�쐼,15.3,62.8,0,0,0,0
2024-02-19T06:09:00+09:00,3.1,��,8.1,�쐼,15.2,62.9,0,0,0,0
2024-02-19T06:10:00+09:00,3.2,��,8.1,�쐼,15.1,62.9,0,0,0,0
2024-02-19T06:11:00+09:00,3.2,��,8.1,�쐼,15.2,64.4,0,0,0,0
2024-02-19T06:12:00+09:00,,,,,,,,,,
2024-02-19T06:13:00+09:00,3.2,��,8.1,�쐼,15.3,63.3,0,0,0,0
2024-02-19T06:14:00+09:00,3.4,��,8.1,�쐼,15.3,63.2,0,0,0,0
2024-02-19T06:15:00+09:00,3.2,��,8,���쐼,15.3,63.2,0,0,0,0
2024-02-19T06:16:00+09:00,3.1,��,8,���쐼,15.3,63.5,0,0,0,0
2024-02-19T06:17:00+09:00,3.3,��,8,���쐼,15.3,63.9,0,0,0,0
2024-02-19T06:18:00+09:00,3.5,��,8,���쐼,15.4,63.9,0,0,0,0
2024-02-19T06:19:00+09:00,3.5,��,8,���쐼,15.5,65,0,0,0,0
2024-02-19T06:20:00+09:00,3.2,��,8,���쐼,15.5,65,0,0,0,0
2024-02-19T06:21:00+09:00,3.2,��,8,���쐼,15.3,64.3,0,0,0,0
2024-02-19T06:22:00+09:00,3.3,��,8,���쐼,15.3,64.1,0,0,0,0
2024-02-19T06:23:00+09:00,3.3,��,8,���쐼,15.3,63.4,0,0,0,0
2024-02-19T06:24:00+09:00,3.2,��,5.8,��,15.3,63.2,0,0,0,0
2024-02-19T06:25:00+09:00,3.3,��,5.8,��,15.3,63.8,0,0,0,0
2024-02-19T06:26:00+09:00,3.4,��,5.8,��,15.3,64.4,0,0,0,0
2024-02-19T06:27:00+09:00,3.5,��,6.2,���쐼,15.4,63.5,0,0,0,0
2024-02-19T06:28:00+09:00,3.4,��,6.7,���쐼,15.4,63.2,0,0,0,0
2024-02-19T06:29:00+09:00,3.6,��,6.8,���쐼,15.3,64.3,0,0,0,0
2024-02-19T06:30:00+09:00,3.8,��,6.8,���쐼,15.3,64.8,0,0,0,0
2024-02-19T06:31:00+09:00,3.8,��,6.8,���쐼,15.2,64.5,0,0,0,0
2024-02-19T06:32:00+09:00,3.9,��,6.8,���쐼,15.3,64.4,0,0,0,0
2024-02-19T06:33:00+09:00,4.1,��,6.8,���쐼,15.5,65.2,0,0,0,0
2024-02-19T06:34:00+09:00,4,��,6.8,���쐼,15.5,64.4,0,0,0,0
2024-02-19T06:35:00+09:00,3.9,��,6.8,���쐼,15.5,63.8,0,0,0,0
2024-02-19T06:36:00+09:00,3.7,��,6.8,���쐼,15.8,63.5,0,0,0,0
2024-02-19T06:37:00+09:00,3.5,��,6.8,���쐼,15.5,63.8,0,0,0,0
2024-02-19T06:38:00+09:00,3.4,��,6.8,���쐼,15.2,63.4,0,0,0,0
2024-02-19T06:39:00+09:00,3.2,��,6.2,���쐼,15.2,64.9,0,0,0,0
2024-02-19T06:40:00+09:00,3.3,��,6.8,��,15.4,65.3,0,0,0,0
2024-02-19T06:41:00+09:00,3.3,��,6.8,��,15.5,66.1,0,0,0,0
2024-02-19T06:42:00+09:00,3.1,���쐼,6.8,��,15.5,66,0,0,0,0
2024-02-19T06:43:00+09:00,3,���쐼,6.8,��,15.2,64.9,0,0,0,0